Location: Unspecified
(47.8330°N, 0.0000°E)
Time: 22:41:04
(UTC+00:00)

PicSat - Visible Passes

Search period start: 19 July 2019 00:00
Search period end: 29 July 2019 00:00
Orbit: 486 x 500 km, 97.5° (Epoch: 18 July)

Date Brightness Start Highest point End Pass type
(mag) Time Alt. Az. Time Alt. Az. Time Alt. Az.
19 Jul ? 20:52:41 12° SE 20:55:38 32° ENE 20:58:55 10° N visible
19 Jul ? 22:27:14 13° SW 22:29:19 20° W 22:32:04 10° NW visible
20 Jul ? 20:31:22 10° ESE 20:34:04 20° ENE 20:36:45 10° NNE visible
20 Jul ? 22:05:20 18° SSW 22:07:28 34° W 22:10:50 10° NNW visible
21 Jul ? 21:43:26 22° S 21:45:41 63° WSW 21:49:18 10° NNW visible
22 Jul ? 21:21:33 20° SSE 21:23:57 70° ENE 21:27:35 10° N visible
23 Jul ? 20:59:40 15° SE 21:02:17 38° ENE 21:05:41 10° N visible
23 Jul ? 22:34:12 12° SW 22:36:04 17° W 22:38:31 10° NW visible
24 Jul ? 20:37:48 10° ESE 20:40:42 23° ENE 20:43:35 10° NNE visible
24 Jul ? 22:12:18 19° SW 22:14:11 29° W 22:17:24 10° NW visible
25 Jul ? 21:50:25 24° SSW 21:52:22 52° W 21:55:56 10° NNW visible
26 Jul ? 21:28:31 24° SSE 21:30:37 84° ENE 21:34:15 10° NNW visible
27 Jul ? 21:06:37 19° SE 21:08:56 45° ENE 21:12:24 10° N visible
27 Jul ? 22:41:10 11° WSW 22:42:47 14° W 22:44:50 10° NW visible
28 Jul ? 20:44:44 13° ESE 20:47:18 26° ENE 20:50:22 10° N visible
28 Jul ? 22:19:16 18° SW 22:20:52 24° W 22:23:54 10° NW visible
